Lapse_Rate
6.2 6.3 6.3 6.3 6.2 6.2 6.1 6.0 6.0 6.0 6.0 6.0 6.1 6.1 6.1 6.2 6.3 6.3 6.4 6.5 6.6 6.7 6.6 6.7 6.6 6.7 6.8 6.8 6.6 6.7 6.5 6.4 6.3 6.1 6.1 6.0 5.9 6.0 5.9 6.0 6.0 5.9 5.6 5.6 5.9
6.3 6.4 6.5 6.4 6.3 6.3 6.2 6.1 6.1 5.9 5.9 5.9 6.0 6.0 6.1 6.1 6.0 6.0 6.2 6.4 6.4 6.6 6.6 6.6 6.7 6.8 7.0 7.0 6.9 6.8 6.6 6.5 6.3 6.1 6.0 6.1 6.0 6.0 6.2 6.2 6.2 5.8 5.5 5.6 6.0
6.4 6.5 6.5 6.6 6.6 6.4 6.3 6.2 6.1 6.0 6.0 6.0 6.0 6.0 6.0 6.0 6.0 6.1 6.3 6.3 6.3 6.3 6.4 6.5 6.7 6.8 6.9 7.0 6.9 6.7 6.8 6.6 6.6 6.2 6.2 6.2 6.2 6.3 6.2 6.1 6.1 5.9 5.7 5.7 6.0
6.3 6.4 6.6 6.6 6.7 6.6 6.6 6.5 6.4 6.4 6.4 6.3 6.3 6.2 6.1 6.1 6.1 6.1 6.3 6.3 6.5 6.4 6.3 6.3 6.6 6.7 6.8 6.9 6.8 6.9 6.9 6.9 6.6 6.5 6.5 6.5 6.5 6.6 6.5 6.3 6.2 6.0 5.8 5.9 6.1
6.2 6.3 6.5 6.6 6.7 6.7 6.7 6.7 6.6 6.6 6.6 6.6 6.5 6.6 6.5 6.3 6.2 6.2 6.3 6.3 6.5 6.5 6.4 6.3 6.5 6.6 6.7 6.6 6.8 7.4 7.2 7.0 6.8 6.8 6.9 6.7 6.6 6.7 6.6 6.5 6.3 5.9 5.6 5.8 5.9
6.3 6.3 6.5 6.6 6.7 6.7 6.8 6.9 6.8 6.7 6.7 6.7 6.7 6.7 6.7 6.6 6.4 6.2 6.2 6.3 6.4 6.5 6.5 6.4 6.7 6.7 6.5 6.7 7.1 7.4 7.3 6.9 6.8 6.9 7.1 6.9 6.6 6.9 6.8 6.7 6.3 5.9 5.5 5.6 5.8
6.3 6.3 6.5 6.6 6.7 6.8 6.9 7.0 7.0 6.9 6.8 6.8 6.8 6.9 6.9 6.9 6.7 6.5 6.4 6.3 6.4 6.5 6.5 6.5 6.6 6.8 6.7 6.8 7.2 7.4 7.5 7.6 7.5 7.4 7.3 7.0 7.0 7.1 7.2 7.0 6.6 6.2 5.7 5.6 5.6
6.4 6.4 6.5 6.8 6.9 6.9 7.0 7.1 7.1 7.1 7.0 6.9 7.0 7.0 7.0 7.0 6.8 6.6 6.5 6.4 6.5 6.5 6.5 6.5 6.6 6.7 6.7 6.9 7.1 7.4 7.7 7.9 7.8 7.5 7.2 7.1 7.5 7.3 6.9 7.3 7.0 6.6 6.3 5.8 5.6
6.6 6.6 6.6 6.8 7.0 7.1 7.1 7.1 7.2 7.1 7.1 7.1 7.1 7.2 7.1 7.0 6.8 6.5 6.4 6.4 6.5 6.5 6.6 6.6 6.6 6.7 6.7 6.9 7.0 7.4 7.5 7.7 7.7 7.5 7.4 7.1 7.7 7.6 7.4 7.4 7.4 7.2 6.8 6.2 5.9
6.7 6.8 6.8 6.9 7.1 7.2 7.3 7.3 7.3 7.3 7.3 7.2 7.2 7.2 7.1 6.9 6.7 6.6 6.5 6.5 6.4 6.4 6.6 6.6 6.5 6.8 6.7 6.7 7.1 7.1 7.3 7.6 7.5 7.5 7.9 7.6 7.8 7.9 7.8 7.8 7.7 7.5 7.4 6.9 6.3
6.9 7.0 7.0 7.1 7.2 7.3 7.4 7.4 7.4 7.3 7.3 7.4 7.4 7.2 7.1 6.9 6.8 6.6 6.6 6.5 6.5 6.4 6.5 6.6 6.5 6.6 6.7 6.6 6.7 6.9 7.2 7.3 7.6 7.3 7.8 8.0 7.9 8.2 8.3 8.2 8.2 7.9 7.7 7.6 7.2
6.9 7.1 7.2 7.3 7.3 7.4 7.4 7.4 7.3 7.3 7.3 7.2 7.1 7.1 6.9 6.9 6.8 6.7 6.5 6.4 6.3 6.3 6.4 6.5 6.5 6.7 6.7 6.7 6.7 7.0 7.4 7.4 7.9 7.6 7.8 8.1 7.9 8.0 8.3 8.6 8.4 8.3 8.1 7.7 7.3
7.0 7.1 7.2 7.3 7.5 7.5 7.4 7.4 7.4 7.3 7.4 7.3 7.1 6.9 6.7 6.7 6.7 6.6 6.5 6.3 6.3 6.4 6.5 6.5 6.6 6.7 6.7 6.8 6.9 7.3 7.4 7.5 7.5 7.9 7.9 8.1 7.9 8.2 8.6 8.7 8.4 8.4 8.4 8.0 7.5
7.0 7.0 7.1 7.2 7.4 7.4 7.4 7.3 7.3 7.3 7.3 7.2 7.2 7.1 6.9 6.7 6.7 6.6 6.4 6.4 6.4 6.4 6.3 6.5 6.7 6.8 7.0 7.0 7.2 7.5 7.4 7.8 7.7 7.6 7.8 7.9 8.1 8.6 8.7 8.5 8.4 8.2 8.4 8.3 7.8
7.1 7.0 7.0 7.1 7.1 7.1 7.2 7.2 7.2 7.2 7.5 7.1 7.1 7.1 7.1 6.9 6.9 6.7 6.5 6.4 6.5 6.5 6.5 6.8 6.9 7.0 7.0 7.3 7.4 7.5 7.7 7.8 8.0 7.8 7.6 7.4 7.6 8.7 8.5 8.4 8.7 8.6 8.7 8.6 8.1
7.0 7.0 6.9 6.9 6.9 6.9 6.9 7.0 7.1 7.1 7.0 7.0 7.1 7.3 7.3 7.1 7.1 7.0 6.8 6.6 6.5 6.4 6.6 7.1 7.1 7.2 7.4 7.7 7.7 7.9 8.3 8.2 8.2 8.0 8.2 7.3 7.6 8.6 8.5 8.6 9.2 9.1 8.9 8.5 8.3
6.9 6.9 6.8 6.8 6.7 6.6 6.7 6.8 6.9 7.0 7.0 7.0 7.3 7.5 7.6 7.6 7.2 7.2 7.0 7.0 6.9 6.8 6.9 7.2 7.5 7.8 7.8 7.9 8.1 8.2 8.2 8.2 8.4 8.5 8.7 7.8 7.6 8.7 8.7 8.7 8.8 9.2 9.2 8.9 8.5
6.7 6.7 6.7 6.6 6.4 6.5 6.5 6.6 6.7 6.6 6.8 7.2 7.7 7.5 7.9 7.8 7.6 7.5 7.4 7.2 7.1 7.0 6.9 6.9 7.7 7.9 7.9 8.1 8.1 8.1 8.2 8.4 8.1 8.5 8.8 7.9 8.2 9.2 8.8 8.8 9.0 9.1 9.3 9.1 8.8
6.5 6.5 6.5 6.4 6.3 6.3 6.3 6.3 6.3 6.8 7.1 7.3 7.5 7.6 7.9 7.8 7.7 7.7 7.4 7.3 7.3 7.2 7.1 7.3 7.9 8.3 8.3 8.2 8.1 8.4 8.5 8.5 8.3 7.8 7.9 8.5 8.5 9.0 9.1 8.9 9.2 9.3 9.1 9.1 9.1
6.5 6.4 6.3 6.2 6.3 6.3 6.2 6.3 6.4 6.9 7.0 7.3 7.5 7.7 7.9 7.9 7.8 7.9 7.6 7.3 7.3 7.4 7.4 7.3 7.5 8.6 8.6 8.6 8.6 8.3 8.4 8.6 8.5 8.7 8.7 8.4 8.3 8.8 9.0 9.1 9.3 9.2 9.3 9.2 9.3
6.4 6.4 6.2 6.2 6.3 6.2 6.2 6.2 6.6 6.9 7.2 7.4 7.5 7.7 7.6 7.4 7.4 7.4 7.3 7.1 7.0 7.1 7.2 7.1 7.1 7.8 8.5 8.8 8.6 8.5 8.4 8.5 8.6 8.5 9.3 9.1 8.8 9.0 9.1 9.2 9.2 9.2 9.3 9.3 9.3
6.2 6.4 6.5 6.4 6.3 6.2 6.2 6.6 6.8 7.1 7.4 7.5 7.5 7.4 7.4 7.2 7.0 6.9 7.0 6.7 6.7 6.6 6.5 6.6 6.7 6.7 7.4 8.2 8.5 8.4 8.2 8.4 8.7 8.5 8.0 8.1 8.5 9.0 9.0 9.0 9.1 9.2 9.3 9.2 9.2
6.2 6.3 6.3 6.3 6.1 6.3 6.5 6.8 6.9 7.0 7.1 7.2 7.3 7.2 7.0 6.8 6.7 6.7 6.8 6.9 6.8 6.8 6.5 6.4 6.2 6.5 7.1 7.4 7.4 7.7 7.9 8.0 7.9 7.8 8.0 8.6 8.9 8.7 8.9 8.8 8.7 8.8 8.9 9.0 9.1
6.2 6.2 6.1 6.1 6.1 6.1 6.3 6.5 6.6 6.7 6.8 6.8 6.7 6.6 6.5 6.4 6.5 6.5 6.5 6.5 6.6 6.5 6.6 6.5 6.3 6.3 6.8 6.9 6.8 6.7 7.0 6.9 6.8 7.0 7.6 7.6 8.1 8.6 8.4 8.5 8.7 8.7 8.9 8.9 9.0
6.1 6.1 6.2 6.2 6.1 6.2 6.3 6.4 6.5 6.5 6.5 6.4 6.3 6.3 6.4 6.4 6.4 6.6 6.5 6.4 6.2 6.4 6.4 5.8 5.8 6.1 6.3 6.3 6.3 6.4 6.8 7.3 6.7 6.9 6.7 7.5 7.3 7.7 8.2 8.4 8.6 8.9 8.9 9.0 9.1
6.2 6.3 6.3 6.3 6.3 6.2 6.2 6.2 6.2 6.3 6.3 6.3 6.3 6.3 6.3 6.3 6.2 6.0 6.1 6.0 6.1 6.0 5.9 5.8 5.4 5.7 5.8 6.2 6.1 6.0 6.5 6.9 7.2 7.0 6.6 7.2 7.4 7.4 7.7 7.9 8.2 8.4 8.7 8.7 9.0
6.6 6.5 6.4 6.4 6.4 6.1 6.1 6.1 6.1 6.1 6.2 6.2 6.2 6.2 6.2 6.1 6.1 5.9 5.7 5.7 5.4 5.7 5.9 5.6 5.5 5.1 5.5 5.8 5.8 6.1 6.1 6.4 6.6 6.6 6.6 6.7 6.9 7.5 7.5 7.4 7.7 7.9 8.1 8.4 8.5
Wind_Speed
12 12 12 13 13 12 12 13 13 14 15 16 16 15 15 15 15 3 4 3 2 9 8 3 1 2 1 2 1 2 2 2 1 1 4 6 3 4 2 2 2 3 3 4 19
12 12 12 13 13 13 12 13 13 14 15 16 16 17 15 15 3 4 4 5 9 11 3 0 2 4 2 2 1 2 1 2 1 1 2 4 4 4 3 2 3 2 4 15 20
13 13 13 13 13 13 12 12 13 13 14 16 16 16 15 11 3 1 2 11 9 5 2 1 2 1 2 2 1 0 1 0 2 4 2 3 3 2 3 5 5 5 11 18 20
14 14 13 13 13 13 13 13 13 13 14 14 15 15 16 3 3 2 8 14 12 5 2 1 2 2 3 4 1 3 4 4 2 3 6 4 1 3 8 2 3 5 14 19 18
14 14 14 14 13 13 13 13 14 14 14 14 13 13 3 1 5 3 6 11 8 5 2 0 1 1 3 4 2 3 5 1 5 5 4 4 7 4 8 8 7 13 16 17 17
14 14 14 14 14 13 13 14 14 14 13 12 11 11 2 3 3 5 8 7 7 4 2 2 1 2 2 3 2 7 8 6 2 6 4 5 3 3 1 10 12 14 15 16 17
15 15 15 14 14 14 14 14 15 15 13 9 7 3 1 9 3 3 6 3 5 3 3 2 0 3 2 2 6 6 6 6 0 2 3 5 9 11 5 12 14 14 14 15 16
15 15 14 14 14 15 15 16 16 14 9 4 3 1 6 2 1 2 4 3 2 1 1 1 0 1 3 3 4 4 2 5 3 1 1 5 10 5 11 15 15 15 15 15 17
15 15 14 14 14 15 16 18 16 8 3 1 2 2 5 2 3 3 4 3 5 2 0 1 2 3 1 5 3 5 4 6 7 2 1 7 13 3 10 14 14 15 16 16 15
16 15 14 13 13 14 19 12 2 3 1 2 2 3 2 2 3 5 2 3 3 5 4 2 2 2 1 4 4 5 5 6 8 4 5 10 20 15 9 14 16 16 16 17 17
17 15 14 12 11 11 8 2 2 2 3 4 1 2 2 6 2 3 3 5 2 3 3 2 5 8 8 1 1 4 7 11 15 7 6 5 15 19 10 16 17 17 17 18 20
17 16 13 10 8 7 2 2 1 2 3 4 6 6 5 3 1 2 6 5 3 3 2 3 9 5 3 2 3 5 8 9 12 3 5 7 13 15 8 15 19 19 19 20 18
17 14 11 8 6 2 2 4 2 2 1 1 3 3 3 6 3 5 9 4 3 4 3 4 1 7 4 4 7 7 5 5 7 13 1 7 9 7 2 11 11 17 19 19 20
15 12 8 4 2 2 3 1 3 2 2 2 2 1 4 3 3 2 6 4 2 6 5 5 2 5 4 7 7 6 5 7 9 7 6 4 8 7 4 7 10 13 16 19 20
15 10 5 6 1 3 3 6 6 3 2 1 4 3 3 4 3 3 1 2 4 4 4 1 3 5 6 6 7 4 1 5 7 4 5 3 4 4 5 7 10 6 13 16 18
14 6 5 3 2 5 5 1 2 2 3 3 4 5 6 2 2 4 4 3 2 4 5 10 3 5 6 3 7 4 10 1 1 1 5 4 4 4 4 8 16 8 5 12 15
16 8 9 4 2 3 2 3 2 1 1 2 2 5 4 5 3 3 9 10 7 3 4 6 9 3 7 7 4 5 3 3 3 3 2 3 4 8 11 11 11 12 5 7 13
11 17 7 4 3 6 3 2 2 1 3 1 2 5 3 2 2 2 4 6 4 5 3 5 1 3 5 5 0 4 4 3 4 4 3 1 4 2 4 6 7 5 1 3 11
7 2 2 2 9 2 2 1 1 1 2 3 3 3 2 2 2 3 3 4 2 6 6 3 5 1 5 4 4 4 5 1 2 1 3 2 4 10 4 4 7 7 6 1 7
2 2 3 3 8 2 1 0 0 2 4 1 2 1 2 3 2 2 2 5 3 1 3 1 6 2 1 2 2 7 7 3 2 3 5 3 4 7 5 7 10 11 10 8 5
2 3 4 1 2 2 1 1 2 1 2 1 2 3 3 3 2 2 2 3 5 5 2 1 3 2 4 4 0 3 4 2 2 3 5 8 5 6 6 2 9 12 11 11 10
1 3 2 3 1 1 1 1 4 4 6 4 4 5 3 4 2 2 2 2 6 3 2 3 2 5 8 2 3 2 2 4 6 5 2 4 7 2 8 2 9 13 12 13 14
2 2 1 2 2 2 1 2 5 5 6 5 4 6 4 3 1 1 1 1 6 5 3 3 2 6 7 5 3 2 2 2 1 2 7 7 7 4 1 7 11 12 11 13 13
2 3 2 3 2 1 2 3 3 5 5 5 3 3 2 2 4 1 1 1 7 3 6 2 2 7 11 10 5 8 8 7 5 5 5 7 9 10 10 11 14 13 13 12 13
4 2 2 2 3 3 2 1 2 3 4 7 3 4 2 1 2 1 1 4 3 4 2 2 5 6 13 13 13 14 17 17 14 15 10 12 12 8 11 12 11 12 14 14 15
2 1 1 2 1 2 3 2 2 2 4 2 3 1 1 2 2 2 2 2 3 1 2 3 4 2 10 11 9 9 13 14 15 15 17 17 15 8 7 10 10 13 15 16 16
2 1 2 2 2 2 1 2 2 1 2 3 1 1 3 2 5 8 6 4 5 5 4 3 2 2 4 4 8 11 6 6 8 3 5 7 4 10 9 11 11 13 14 15 16
Wind_Direction
357 351 347 346 344 343 342 341 337 336 333 334 334 334 332 330 316 178 248 249 169 170 188 157 169 60 70 83 90 130 48 32 6 296 352 147 161 185 166 204 171 152 139 129 147
354 350 345 343 341 339 338 336 333 333 330 332 332 331 333 335 303 255 275 183 167 156 160 205 35 360 41 42 61 15 37 340 273 207 285 160 187 157 203 187 220 191 105 141 150
351 348 342 339 338 335 333 332 331 329 326 328 329 329 328 326 292 102 357 213 179 167 117 64 71 8 39 1 33 57 290 356 323 220 193 178 214 210 220 245 226 219 156 159 160
347 345 342 337 334 331 327 327 326 324 324 325 327 327 323 293 185 24 322 198 188 171 142 87 59 11 19 16 354 302 266 260 312 201 157 186 155 211 221 233 313 175 159 162 169
346 342 339 335 331 327 324 322 322 321 321 322 325 328 311 282 256 357 69 138 142 154 157 117 64 349 21 342 319 266 327 300 242 184 229 181 231 227 242 217 128 142 158 170 178
342 339 336 332 329 324 321 317 314 316 316 317 321 320 292 248 102 32 129 142 149 135 156 205 337 3 58 338 345 320 300 307 262 215 236 244 262 195 251 164 149 159 171 177 184
341 336 333 330 327 322 319 315 311 308 308 310 319 319 236 247 97 349 156 192 175 168 156 209 270 337 350 345 331 314 327 337 53 217 238 211 263 237 169 171 166 176 178 185 197
338 334 332 329 326 322 318 312 305 299 294 285 284 258 252 237 313 260 171 124 174 189 131 115 154 72 347 316 354 359 47 355 27 221 302 213 286 307 175 171 184 187 186 196 203
336 332 330 328 326 323 317 312 303 281 228 181 193 255 264 323 233 159 172 143 131 150 278 55 53 58 94 3 320 20 334 334 331 339 274 226 288 347 178 188 195 196 198 198 207
333 330 328 328 328 326 317 304 34 131 171 202 259 271 233 92 139 127 182 133 114 123 127 81 50 271 129 338 301 340 324 309 304 295 269 267 269 270 200 204 209 205 206 205 204
330 327 324 323 326 333 340 158 202 175 202 218 115 298 15 333 188 122 155 137 78 79 170 53 220 228 267 183 304 284 286 306 299 310 280 258 270 286 226 215 221 213 212 212 210
329 324 320 317 319 322 294 218 238 25 310 229 248 278 253 305 35 102 168 161 152 161 149 200 249 236 164 157 240 252 294 311 296 215 291 303 288 283 232 229 221 214 214 216 215
326 320 315 312 319 266 224 229 74 314 271 296 198 217 235 181 213 184 176 139 143 167 176 223 141 115 165 229 253 252 269 288 298 325 289 301 290 291 251 253 246 231 230 223 214
327 321 311 310 270 160 231 172 273 272 319 120 172 150 157 189 192 179 178 154 142 220 181 261 227 236 240 254 217 287 219 269 308 332 323 350 309 293 341 285 241 251 228 225 220
330 318 283 209 20 203 76 341 129 190 115 115 111 119 140 195 123 144 211 144 191 165 202 284 200 194 211 240 187 275 179 311 313 286 286 263 265 274 320 338 333 277 232 225 217
329 314 160 160 226 259 318 267 232 225 90 122 124 160 163 194 122 115 156 92 110 185 221 260 212 234 239 162 205 308 296 246 107 283 279 27 286 286 356 328 320 325 269 222 210
322 233 177 174 115 332 275 176 204 63 329 56 123 166 178 171 184 143 180 194 212 216 250 305 257 254 219 258 176 204 267 291 240 212 299 93 274 268 319 328 319 318 290 220 199
358 142 219 232 285 341 198 225 91 64 38 56 80 126 151 139 77 115 133 210 230 239 297 308 357 169 156 208 85 181 225 251 290 275 315 119 250 295 330 317 340 355 329 177 194
139 184 191 269 223 265 205 73 113 32 351 349 115 101 80 83 102 129 71 358 322 216 231 233 253 237 202 187 221 137 208 33 184 131 264 270 268 274 235 8 35 36 49 116 199
175 171 45 40 154 213 87 130 252 267 321 251 128 354 120 40 144 91 97 10 348 350 245 319 276 277 144 171 108 242 142 216 207 232 261 210 267 276 311 348 355 6 16 354 271
187 102 21 89 229 58 155 220 292 298 336 344 106 105 78 52 55 73 75 49 356 8 121 290 253 272 269 215 240 167 212 179 256 240 266 270 254 220 213 326 334 331 341 343 333
123 85 38 289 85 25 120 224 344 346 17 60 77 64 56 42 56 112 135 90 356 321 347 30 295 283 282 304 294 277 311 229 251 226 233 294 266 290 218 228 338 323 337 346 341
78 93 63 283 112 72 8 91 41 34 33 39 58 39 49 73 180 99 42 150 15 4 25 5 252 292 281 192 115 93 67 74 310 277 211 244 266 18 260 322 341 326 350 349 351
114 122 45 61 33 64 85 38 102 38 56 52 83 82 94 69 39 32 304 8 339 10 57 198 250 257 269 302 328 292 282 304 299 267 269 251 288 299 7 355 359 349 355 6 8
16 73 360 120 76 81 66 26 60 44 52 34 74 69 82 153 325 258 303 319 322 3 79 12 275 276 280 279 277 278 284 287 264 261 259 285 280 316 349 348 356 353 358 10 9
55 58 82 73 7 114 20 47 58 66 8 42 91 87 112 196 260 277 284 241 298 33 357 347 269 287 285 282 267 265 267 269 272 267 268 269 262 7 354 7 20 17 12 11 7
28 78 303 14 76 162 87 139 87 196 80 60 18 173 180 114 307 286 287 290 280 278 272 245 247 243 279 343 310 272 304 305 299 21 310 264 10 346 1 14 33 22 16 12 5